4XDNS LLHA-LLIB

Flight info

Callsign 4XDNS
Flight time 0h 20m
Altitude 250
Route GILAM EVLYM SEGEV ZALMN DESHE AMNON
Aircraft BE35/L-VD/A

Departure

Time 2026-05-01 11:53
Airport Uri Michaeli Haifa International Airport (LLHA)

Arrival

Time 2026-05-01 12:13
Airport Rosh Pina Airport (LLIB)
Time Latitude Longitude Altitude Speed Heading
2026-05-01 11:24 32.81241 35.04160 19 ft 0 kts 70°
2026-05-01 11:46 32.81241 35.04159 19 ft 0 kts 70°
2026-05-01 11:48 32.81244 35.04169 20 ft 4 kts 86°
2026-05-01 11:48 32.81201 35.04189 20 ft 7 kts 160°
2026-05-01 11:48 32.81187 35.04195 20 ft 5 kts 157°
2026-05-01 11:49 32.81157 35.04223 20 ft 6 kts 96°
2026-05-01 11:49 32.81156 35.04229 21 ft 0 kts 87°
2026-05-01 11:50 32.81157 35.04233 21 ft 5 kts 82°
2026-05-01 11:50 32.81129 35.04321 21 ft 22 kts 156°
2026-05-01 11:50 32.80987 35.04381 22 ft 23 kts 159°
2026-05-01 11:50 32.80836 35.04447 21 ft 22 kts 165°
2026-05-01 11:51 32.80711 35.04494 20 ft 9 kts 139°
2026-05-01 11:51 32.80721 35.04526 20 ft 4 kts
2026-05-01 11:51 32.80740 35.04506 20 ft 4 kts 289°
2026-05-01 11:51 32.80745 35.04495 20 ft 0 kts 319°
2026-05-01 11:52 32.80792 35.04472 20 ft 35 kts 338°
2026-05-01 11:52 32.81208 35.04299 127 ft 76 kts 350°
2026-05-01 11:52 32.81488 35.04841 411 ft 112 kts 91°
2026-05-01 11:53 32.81335 35.05805 651 ft 122 kts 99°
2026-05-01 11:53 32.81108 35.06803 857 ft 129 kts 101°
2026-05-01 11:53 32.80942 35.07827 1006 ft 126 kts 92°
2026-05-01 11:53 32.80828 35.08894 1038 ft 133 kts 91°
2026-05-01 11:54 32.80733 35.10015 963 ft 141 kts 88°
2026-05-01 11:54 32.80788 35.11099 921 ft 126 kts 66°
2026-05-01 11:54 32.81103 35.12038 964 ft 118 kts 57°
2026-05-01 11:54 32.81406 35.12946 970 ft 117 kts 58°
2026-05-01 11:55 32.81753 35.13836 901 ft 117 kts 56°
2026-05-01 11:55 32.82104 35.14672 927 ft 112 kts 57°
2026-05-01 11:55 32.82424 35.15482 1140 ft 110 kts 58°
2026-05-01 11:55 32.82712 35.16349 1417 ft 118 kts 68°
2026-05-01 11:56 32.82934 35.17327 1684 ft 123 kts 71°
2026-05-01 11:56 32.83156 35.18351 1896 ft 135 kts 70°
2026-05-01 11:56 32.83408 35.19482 2178 ft 143 kts 71°
2026-05-01 11:56 32.83649 35.20609 2502 ft 139 kts 71°
2026-05-01 11:57 32.83890 35.21767 2530 ft 151 kts 70°
2026-05-01 11:57 32.84172 35.22943 2554 ft 143 kts 69°
2026-05-01 11:57 32.84441 35.24045 2478 ft 134 kts 70°
2026-05-01 11:57 32.84715 35.25064 2427 ft 130 kts 68°
2026-05-01 11:58 32.84920 35.26079 2415 ft 124 kts 75°
2026-05-01 11:58 32.85056 35.27106 2408 ft 122 kts 76°
2026-05-01 11:58 32.85200 35.29149 2458 ft 132 kts 81°
2026-05-01 11:59 32.85254 35.30257 2478 ft 135 kts 81°
2026-05-01 11:59 32.85279 35.31396 2464 ft 145 kts 86°
2026-05-01 11:59 32.85283 35.32603 2521 ft 148 kts 87°
2026-05-01 12:00 32.85345 35.34969 2400 ft 145 kts 84°
2026-05-01 12:00 32.85359 35.36124 2379 ft 137 kts 87°
2026-05-01 12:00 32.85323 35.38226 2219 ft 128 kts 94°
2026-05-01 12:01 32.85279 35.39238 2427 ft 119 kts 87°
2026-05-01 12:01 32.85298 35.40273 2464 ft 129 kts 70°
2026-05-01 12:01 32.85705 35.41209 2527 ft 127 kts 46°
2026-05-01 12:01 32.86267 35.41963 2557 ft 114 kts 24°
2026-05-01 12:02 32.86938 35.41831 2402 ft 110 kts 299°
2026-05-01 12:02 32.86674 35.41092 2436 ft 123 kts 211°
2026-05-01 12:02 32.85907 35.41424 2396 ft 141 kts 106°
2026-05-01 12:02 32.86159 35.42439 2141 ft 134 kts 32°
2026-05-01 12:03 32.86968 35.42693 2468 ft 104 kts 354°
2026-05-01 12:03 32.87629 35.42570 2478 ft 93 kts 317°
2026-05-01 12:03 32.87820 35.41864 2530 ft 96 kts 267°
2026-05-01 12:03 32.87581 35.41087 2457 ft 109 kts 244°
2026-05-01 12:04 32.86893 35.40673 2356 ft 135 kts 179°
2026-05-01 12:04 32.86091 35.41358 2167 ft 159 kts 118°
2026-05-01 12:04 32.85739 35.42582 2368 ft 149 kts 79°
2026-05-01 12:04 32.86366 35.43470 2247 ft 148 kts
2026-05-01 12:05 32.87323 35.43570 2501 ft 126 kts 348°
2026-05-01 12:05 32.88609 35.42610 2253 ft 137 kts 266°
2026-05-01 12:05 32.88130 35.41737 2526 ft 144 kts 221°
2026-05-01 12:06 32.87162 35.41491 2596 ft 153 kts 172°
2026-05-01 12:06 32.86415 35.42427 2485 ft 166 kts 104°
2026-05-01 12:06 32.86593 35.43762 2277 ft 164 kts 72°
2026-05-01 12:06 32.86330 35.44994 2456 ft 154 kts 116°
2026-05-01 12:07 32.85880 35.46154 2356 ft 155 kts 93°
2026-05-01 12:07 32.85987 35.47396 2406 ft 149 kts 75°
2026-05-01 12:07 32.86222 35.48559 2471 ft 142 kts 69°
2026-05-01 12:07 32.86476 35.49693 2547 ft 147 kts 72°
2026-05-01 12:08 32.86761 35.50927 2516 ft 156 kts 69°
2026-05-01 12:08 32.86999 35.52181 2404 ft 159 kts 76°
2026-05-01 12:08 32.87285 35.53435 2412 ft 158 kts 66°
2026-05-01 12:08 32.87643 35.54585 2627 ft 143 kts 62°
2026-05-01 12:09 32.88148 35.55665 2540 ft 162 kts 57°
2026-05-01 12:09 32.88708 35.56785 2558 ft 154 kts 54°
2026-05-01 12:09 32.89393 35.57774 2444 ft 157 kts 32°
2026-05-01 12:09 32.90259 35.58429 2450 ft 145 kts 21°
2026-05-01 12:10 32.91133 35.59011 2463 ft 143 kts 21°
2026-05-01 12:10 32.92722 35.60068 2566 ft 123 kts 21°
2026-05-01 12:10 32.93476 35.60451 2576 ft 110 kts
2026-05-01 12:11 32.95018 35.60456 2024 ft 116 kts 336°
2026-05-01 12:11 32.95623 35.59918 1822 ft 102 kts 302°
2026-05-01 12:11 32.95967 35.59243 1573 ft 93 kts 297°
2026-05-01 12:12 32.96283 35.58649 1343 ft 80 kts 303°
2026-05-01 12:12 32.96668 35.58182 1170 ft 80 kts 323°
2026-05-01 12:12 32.97149 35.57834 1069 ft 80 kts 330°
2026-05-01 12:12 32.97617 35.57518 937 ft 72 kts 331°
2026-05-01 12:13 32.98003 35.57262 897 ft 49 kts 330°
2026-05-01 12:13 32.98251 35.57094 895 ft 41 kts 330°
2026-05-01 12:13 32.98488 35.56930 894 ft 38 kts 330°
2026-05-01 12:13 32.98629 35.56832 894 ft 17 kts 300°
2026-05-01 12:14 32.98608 35.56849 893 ft 23 kts 152°
2026-05-01 12:14 32.98430 35.56974 895 ft 35 kts 154°
2026-05-01 12:14 32.98209 35.57117 896 ft 36 kts 151°